Voltar ao catálogo

FENGYUN 1C DEB

AtivoSSO
NORAD 31030·DEBRIS·🇨🇳 China

Lançado May 10, 1999 de Taiyuan Satellite Launch Center

Loading…

Próximas Passagens (próximas 24 horas)

TLE

AtualizadoSource: Space-Track

Época: Sep 14, 2026, 10:40 UTC

1 31030U 99025BDY 26257.44455429  .00001110  00000-0  49488-3 0  9990
2 31030  98.7427 323.2612 0026262   6.3448   6.9355 14.24652442  6253

Acompanhe FENGYUN 1C DEB em tempo real com AllMySat

Download on the App Store